Farmingdale, NY

3:59 AM EDT on May 29, 2017 (GMT -0400)
Republic

Weather History for KFRG - May, 2014

Change the Weather History Date:

Thursday, May 1, 2014

  Actual Average Record
Temperature  
Mean Temperature 58 °F -  
Max Temperature 66 °F 62 °F 81 °F (2001)
Min Temperature 53 °F 45 °F 35 °F (2008)
Degree Days  
Heating Degree Days 6    
Growing Degree Days 8 (Base 50)    
Moisture  
Dew Point 55 °F    
Average Humidity 95    
Maximum Humidity 100    
Minimum Humidity 80    
Precipitation  
Precipitation 0.78 in - - ()
Sea Level Pressure  
Sea Level Pressure 29.81 in    
Wind  
Wind Speed 16 mph (SSW)    
Max Wind Speed 23 mph    
Max Gust Speed 33 mph    
Visibility 4 miles    
Events Fog , Rain    
Averages and records for this station are not official NWS values.
T = Trace of Precipitation, MM = Missing Value Source: NWS Daily Summary

Daily Weather History Graph

Daily Weather History Graph

Search for Another Location

Airport or City:

Trip Planner

Search our weather history database for the weather conditions in past years. The results will help you decide how hot, cold, wet, or windy it might be!

Date:

Astronomy

May. 01, 2014 Rise Set
Actual Time 5:52 AM EDT 7:49 PM EDT
Civil Twilight 5:22 AM EDT 8:19 PM EDT
Nautical Twilight 4:46 AM EDT 8:56 PM EDT
Astronomical Twilight 4:07 AM EDT 9:35 PM EDT
Moon 7:37 AM EDT (5/1) 10:21 PM EDT (5/1)
Length of Visible Light 14h 57m
Length of Day
13h 57m
Waxing Crescent, 6% of the Moon is Illuminated
May 1
Waxing Crescent
May 6
First Quarter
May 14
Full
May 21
Last Quarter
May 28
New

Hourly Weather History & Observations

Time (EDT) Temp. Dew Point Humidity Pressure Visibility Wind Dir Wind Speed Gust Speed Precip Events Conditions
12:08 AM 53.6 °F 53.6 °F 100% 29.97 in 3.0 mi SSE 23.0 mph 31.1 mph 0.08 in Rain Heavy Rain
12:53 AM 54.0 °F 54.0 °F 100% 29.96 in 4.0 mi SSE 23.0 mph 33.4 mph 0.15 in Rain Rain
1:42 AM 55.4 °F 53.6 °F 94% 29.93 in 4.0 mi SSE 21.9 mph 31.1 mph 0.10 in Rain Light Rain
1:53 AM 55.0 °F 54.0 °F 96% 29.92 in 6.0 mi SSE 20.7 mph 31.1 mph 0.11 in Rain Light Rain
2:11 AM 55.4 °F 55.4 °F 100% 29.91 in 2.0 mi South 18.4 mph 28.8 mph 0.10 in Rain Heavy Rain
2:21 AM 55.4 °F 53.6 °F 94% 29.90 in 1.8 mi South 23.0 mph 32.2 mph 0.22 in Rain Heavy Rain
2:37 AM 55.4 °F 55.4 °F 100% 29.88 in 3.0 mi SSE 23.0 mph 33.4 mph 0.37 in Rain Light Rain
2:48 AM 55.4 °F 55.4 °F 100% 29.87 in 2.5 mi South 18.4 mph 31.1 mph 0.44 in Rain Light Rain
2:53 AM 55.9 °F 55.9 °F 100% 29.88 in 4.0 mi South 18.4 mph 27.6 mph 0.45 in Rain Light Rain
3:38 AM 53.6 °F 53.6 °F 100% 29.87 in 2.5 mi South 12.7 mph 23.0 mph 0.06 in   Overcast
3:53 AM 53.1 °F 53.1 °F 100% 29.87 in 3.0 mi South 9.2 mph - 0.07 in Rain Rain
4:21 AM 53.6 °F 53.6 °F 100% 29.86 in 2.5 mi SSW 10.4 mph - 0.00 in Rain Light Rain
4:42 AM 53.6 °F 53.6 °F 100% 29.86 in 1.8 mi SSW 11.5 mph 19.6 mph 0.00 in   Overcast
4:53 AM 54.0 °F 54.0 °F 100% 29.85 in 1.5 mi SSW 13.8 mph - 0.00 in   Overcast
5:21 AM 53.6 °F 53.6 °F 100% 29.84 in 0.8 mi SSW 16.1 mph - N/A   Mist
5:53 AM 53.1 °F 53.1 °F 100% 29.85 in 0.5 mi SSW 15.0 mph 25.3 mph 0.00 in Fog Fog
6:27 AM 53.6 °F 53.6 °F 100% 29.84 in 0.2 mi SSW 16.1 mph 24.2 mph N/A Fog Fog
6:53 AM 53.1 °F 53.1 °F 100% 29.84 in 0.2 mi SSW 15.0 mph 23.0 mph N/A Fog Fog
7:43 AM 53.6 °F 53.6 °F 100% 29.83 in 0.5 mi SW 11.5 mph - N/A Fog Fog
7:53 AM 53.1 °F 53.1 °F 100% 29.84 in 0.2 mi SW 11.5 mph 19.6 mph N/A Fog Fog
8:15 AM 53.6 °F 53.6 °F 100% 29.83 in 0.5 mi SSW 15.0 mph 19.6 mph N/A Fog Fog
8:26 AM 53.6 °F 53.6 °F 100% 29.82 in 0.2 mi SSW 12.7 mph - N/A Fog Fog
8:53 AM 53.1 °F 53.1 °F 100% 29.81 in 0.2 mi SSW 12.7 mph 21.9 mph N/A Fog Fog
9:18 AM 53.6 °F 53.6 °F 100% 29.81 in 0.5 mi SW 10.4 mph - N/A Fog Fog
9:43 AM 53.6 °F 53.6 °F 100% 29.80 in 0.2 mi SSW 15.0 mph 23.0 mph N/A Fog Fog
9:53 AM 53.1 °F 53.1 °F 100% 29.82 in 0.2 mi SW 16.1 mph - N/A Fog Fog
10:53 AM 54.0 °F 54.0 °F 100% 29.81 in 0.2 mi SW 10.4 mph - N/A Fog Fog
11:02 AM 53.6 °F 53.6 °F 100% 29.81 in 0.5 mi SW 9.2 mph - N/A Fog Fog
11:20 AM 55.4 °F 55.4 °F 100% 29.79 in 1.2 mi SW 8.1 mph - N/A   Overcast
11:53 AM 57.9 °F 57.9 °F 100% 29.79 in 2.0 mi SSW 6.9 mph - N/A   Overcast
12:14 PM 57.2 °F 57.2 °F 100% 29.79 in 2.0 mi South 4.6 mph - N/A   Overcast
12:39 PM 59.0 °F 57.2 °F 94% 29.77 in 2.0 mi Variable 3.5 mph - N/A   Overcast
12:53 PM 59.0 °F 57.9 °F 96% 29.77 in 2.0 mi South 4.6 mph - N/A   Mostly Cloudy
1:16 PM 62.6 °F 59.0 °F 88% 29.77 in 8.0 mi South 6.9 mph - N/A   Scattered Clouds
1:53 PM 63.0 °F 57.9 °F 84% 29.76 in 10.0 mi SSW 9.2 mph - N/A   Clear
2:53 PM 64.9 °F 59.0 °F 81% 29.75 in 10.0 mi SSW 11.5 mph - N/A   Partly Cloudy
3:53 PM 64.0 °F 57.9 °F 80% 29.73 in 10.0 mi SSW 9.2 mph - N/A   Partly Cloudy
4:53 PM 64.0 °F 59.0 °F 84% 29.72 in 10.0 mi SSW 12.7 mph - N/A   Mostly Cloudy
5:53 PM 62.1 °F 57.9 °F 86% 29.71 in 10.0 mi SW 12.7 mph - N/A   Clear
6:53 PM 62.1 °F 55.9 °F 80% 29.70 in 10.0 mi SSW 6.9 mph - N/A   Clear
7:53 PM 57.9 °F 53.1 °F 84% 29.71 in 10.0 mi SSW 5.8 mph - N/A   Clear
8:53 PM 55.9 °F 52.0 °F 87% 29.71 in 10.0 mi SW 6.9 mph - N/A   Scattered Clouds
9:53 PM 55.0 °F 53.1 °F 93% 29.71 in 10.0 mi SSW 4.6 mph - N/A   Partly Cloudy
10:53 PM 55.9 °F 53.1 °F 90% 29.70 in 10.0 mi Variable 6.9 mph - N/A   Overcast
11:53 PM 60.1 °F 55.9 °F 86% 29.71 in 10.0 mi West 4.6 mph - N/A   Overcast